Date,TemperatureHighF,TemperatureAvgF,TemperatureLowF,DewpointHighF,DewpointAvgF,DewpointLowF,HumidityHigh,HumidityAvg,HumidityLow,PressureMaxIn,PressureMinIn,WindSpeedMaxMPH,WindSpeedAvgMPH,GustSpeedMaxMPH,PrecipitationSumIn
2013-1-1,30,13,3,18,3,-2,83,66,35,0.00,40.00,7,3,14,0.02
2013-1-2,37,17,4,7,1,-3,78,53,25,0.00,40.00,6,3,12,0.00
2013-1-3,30,16,2,5,0,-5,80,52,34,0.00,40.00,11,6,22,0.00
2013-1-4,36,18,7,4,-1,-4,75,47,20,0.00,40.00,6,4,10,0.00
2013-1-5,44,22,7,5,1,-4,73,45,16,0.00,40.00,6,2,9,0.00
2013-1-6,43,27,15,6,2,-1,48,35,19,0.00,40.00,10,6,16,0.00
2013-1-7,38,27,20,11,6,1,53,40,28,0.00,40.00,10,6,17,0.00
2013-1-8,41,31,20,18,12,-1,61,45,30,0.00,40.00,10,6,19,0.00
2013-1-9,49,35,22,18,16,13,74,47,25,0.00,40.00,8,5,17,0.00
2013-1-10,38,33,28,21,16,12,73,49,38,0.00,40.00,15,10,31,0.00
2013-1-11,23,14,0,21,2,-8,91,62,33,0.00,40.00,15,9,30,0.00
2013-1-12,22,6,-4,5,-3,-10,82,66,38,0.00,40.00,6,2,13,0.00
2013-1-13,24,10,-1,2,-1,-6,82,62,33,0.00,40.00,6,3,11,0.00
2013-1-14,16,6,-2,-2,-10,-15,71,47,27,0.00,40.00,7,5,14,0.00
2013-1-15,26,11,1,2,-6,-14,69,45,34,0.00,40.00,9,5,19,0.00
2013-1-16,40,23,7,13,7,-1,69,52,32,0.00,40.00,8,3,14,0.00
2013-1-17,38,23,13,12,8,6,76,55,34,0.00,40.00,8,5,14,0.00
2013-1-18,48,29,18,17,13,9,69,53,28,0.00,40.00,7,5,10,0.00
2013-1-19,52,30,22,14,11,1,69,50,16,0.00,40.00,6,4,9,0.00
2013-1-20,51,29,20,12,5,-2,59,38,14,0.00,40.00,5,3,10,0.00
2013-1-21,53,31,21,12,3,-3,56,33,10,0.00,40.00,5,3,9,0.00
2013-1-22,58,35,23,15,9,2,60,37,12,0.00,40.00,6,4,9,0.00
2013-1-23,55,35,25,15,11,3,60,38,15,0.00,40.00,6,3,10,0.00
2013-1-24,49,40,36,34,23,14,91,55,30,0.00,40.00,7,3,13,0.00
2013-1-25,40,37,35,39,36,34,98,95,91,0.00,40.00,5,3,10,0.03
2013-1-26,40,37,35,39,36,34,99,97,92,0.00,40.00,12,6,20,1.35
2013-1-27,43,37,33,38,35,32,99,93,70,0.00,40.00,12,9,25,0.25
2013-1-28,35,27,15,33,24,7,97,89,48,0.00,40.00,15,8,28,0.18
2013-1-29,28,17,5,16,10,0,88,74,50,0.00,40.00,9,4,19,0.10
2013-1-30,38,24,9,22,15,5,87,68,51,0.00,40.00,9,5,17,0.01
2013-1-31,47,34,21,26,21,18,93,62,35,0.00,40.00,5,2,9,0.01
2013-2-1,48,32,22,26,20,13,91,64,24,0.00,40.00,6,2,11,0.01
2013-2-2,49,35,25,22,17,13,76,51,25,0.00,40.00,6,4,9,0.00
2013-2-3,38,32,26,30,22,6,94,68,37,0.00,40.00,5,2,12,0.00
2013-2-4,51,35,25,26,21,16,92,64,25,0.00,40.00,6,3,10,0.00
2013-2-5,52,36,24,22,17,10,79,49,22,0.00,40.00,6,3,11,0.00
2013-2-6,49,38,30,27,22,18,81,55,38,0.00,40.00,7,5,14,0.00
2013-2-7,47,35,24,24,18,14,79,54,29,0.00,40.00,7,4,12,0.00
2013-2-8,44,35,27,24,16,5,77,48,26,0.00,40.00,17,10,41,0.00
2013-2-9,28,23,19,21,16,8,91,76,45,0.00,40.00,10,7,20,0.03
2013-2-10,23,20,12,20,17,9,90,88,86,0.00,40.00,11,7,20,0.01
2013-2-11,30,19,4,21,15,-1,89,83,70,0.00,40.00,5,3,9,0.24
2013-2-12,34,20,11,16,11,7,88,71,41,0.00,40.00,5,3,11,0.10
2013-2-13,44,27,13,19,13,7,76,58,36,0.00,40.00,7,4,13,0.01
2013-2-14,42,30,17,19,16,12,82,58,35,0.00,40.00,9,4,20,0.01
2013-2-15,47,32,23,15,9,5,67,41,19,0.00,40.00,7,4,14,0.00
2013-2-16,52,34,19,14,8,4,56,38,17,0.00,40.00,6,3,10,0.00
2013-2-17,48,38,26,12,8,3,44,28,17,0.00,40.00,14,8,25,0.00
2013-2-18,45,30,19,14,0,-11,55,30,9,0.00,40.00,7,4,14,0.00
2013-2-19,45,35,25,11,5,-2,36,29,21,0.00,40.00,10,6,20,0.00
2013-2-20,39,28,16,24,17,9,90,65,39,0.00,40.00,9,5,19,0.10
2013-2-21,38,27,21,23,19,13,92,74,44,0.00,40.00,8,6,18,0.09
2013-2-22,36,22,9,14,6,3,84,55,27,0.00,40.00,9,4,17,0.00
2013-2-23,42,26,15,19,12,6,86,56,34,0.00,40.00,12,7,26,0.00
2013-2-24,24,19,10,16,7,-1,83,62,46,0.00,40.00,10,6,27,0.00
2013-2-25,43,29,16,9,5,0,65,39,17,0.00,40.00,9,5,15,0.05
2013-2-26,35,26,18,9,2,-8,67,37,16,0.00,40.00,8,6,20,0.04
2013-2-27,38,24,15,4,0,-10,54,37,12,0.00,40.00,6,4,12,0.00
2013-2-28,45,31,21,5,0,-7,36,27,15,0.00,40.00,7,4,15,0.00
2013-3-1,50,38,27,21,16,4,68,42,31,0.00,40.00,9,5,19,0.00
2013-3-2,59,43,29,23,20,16,68,42,21,0.00,40.00,6,4,11,0.00
2013-3-3,55,44,37,27,20,15,60,40,28,0.00,40.00,13,9,26,0.00
2013-3-4,51,40,31,29,21,15,61,47,34,0.00,40.00,8,5,16,0.00
2013-3-5,55,40,28,16,12,8,52,34,21,0.00,40.00,8,5,15,0.00
2013-3-6,56,44,35,22,16,11,50,34,20,0.00,40.00,14,8,27,0.00
2013-3-7,57,44,33,20,15,7,55,34,14,0.00,40.00,11,8,23,0.00
2013-3-8,39,34,23,35,26,18,96,75,42,0.00,40.00,11,8,22,0.17
2013-3-9,33,26,22,30,24,20,93,91,88,0.00,40.00,10,8,24,0.20
2013-3-10,43,34,25,26,21,15,93,62,37,0.00,40.00,11,7,22,0.09
2013-3-11,53,37,22,24,20,13,90,55,25,0.00,40.00,6,3,13,0.02
2013-3-12,57,43,30,26,23,19,72,47,29,0.00,40.00,9,4,16,0.00
2013-3-13,61,45,31,27,24,16,73,46,25,0.00,40.00,6,4,12,0.00
2013-3-14,70,50,35,26,18,7,56,32,9,0.00,40.00,5,4,13,0.00
2013-3-15,68,55,42,23,19,16,41,26,15,0.00,40.00,9,5,18,0.00
2013-3-16,63,50,39,25,22,19,50,34,20,0.00,40.00,8,5,20,0.00
2013-3-17,58,47,39,27,16,2,62,35,10,0.00,40.00,12,7,28,0.00
2013-3-18,55,43,29,12,5,-1,45,23,10,0.00,40.00,9,5,18,0.00
2013-3-19,54,43,32,21,14,0,62,32,17,0.00,40.00,8,4,19,0.00
2013-3-20,56,44,32,22,19,15,60,37,26,0.00,40.00,14,7,27,0.00
2013-3-21,57,45,30,27,17,3,78,37,14,0.00,40.00,12,6,29,0.00
2013-3-22,56,43,29,9,-5,-34,27,14,2,0.00,40.00,17,9,35,0.00
2013-3-23,37,26,17,6,-6,-18,50,27,10,0.00,40.00,9,6,20,0.00
2013-3-24,45,30,16,1,-6,-14,37,21,13,0.00,40.00,9,5,23,0.00
2013-3-25,53,38,26,10,4,0,33,25,17,0.00,40.00,8,5,16,0.00
2013-3-26,58,45,34,12,9,6,30,24,14,0.00,40.00,12,7,22,0.00
2013-3-27,62,47,33,14,10,3,41,25,10,0.00,40.00,10,5,21,0.00
2013-3-28,61,55,49,20,18,12,30,23,16,0.00,40.00,10,8,22,0.00
2013-3-29,65,50,35,27,20,14,61,33,14,0.00,40.00,7,4,17,0.00
2013-3-30,64,50,37,26,20,-100,54,35,14,0.00,40.00,9,3,16,0.00
2013-3-31,67,52,37,28,24,18,61,37,16,0.00,40.00,8,4,21,0.00
2013-4-1,60,49,39,27,18,-3,52,32,10,0.00,40.00,16,8,31,0.00
2013-4-2,51,41,28,27,23,21,79,51,31,0.00,40.00,8,5,23,0.00
2013-4-3,60,45,31,32,23,12,88,50,15,0.00,40.00,9,4,17,0.00
2013-4-4,65,49,34,18,14,6,49,29,10,0.00,40.00,9,4,18,0.00
2013-4-5,66,55,43,25,18,8,34,24,15,0.00,40.00,13,8,28,0.00
2013-4-6,66,53,37,25,20,16,56,30,17,0.00,40.00,9,5,20,0.00
2013-4-7,66,51,34,22,14,3,47,25,11,0.00,40.00,12,6,27,0.00
2013-4-8,51,41,30,33,25,6,95,58,18,0.00,40.00,18,11,50,0.20
2013-4-9,38,32,29,30,28,23,95,85,71,0.00,40.00,9,4,20,0.31
2013-4-10,44,32,19,23,14,9,80,50,25,0.00,40.00,11,7,26,0.09
2013-4-11,53,40,29,28,22,14,70,49,32,0.00,40.00,9,5,20,0.00
2013-4-12,62,43,29,31,19,0,90,48,9,0.00,40.00,7,3,16,0.00
2013-4-13,64,51,33,19,12,4,31,21,16,0.00,40.00,16,9,36,0.00
2013-4-14,64,53,42,25,21,15,49,30,15,0.00,40.00,18,11,34,0.00
2013-4-15,62,51,41,30,23,12,58,35,14,0.00,40.00,20,16,38,0.00
2013-4-16,56,45,34,28,22,12,58,41,22,0.00,40.00,21,12,41,0.00
2013-4-17,38,31,24,25,20,12,84,64,37,0.00,40.00,9,6,21,0.00
2013-4-18,42,30,20,18,7,0,80,43,17,0.00,40.00,9,5,23,0.00
2013-4-19,56,38,19,5,3,0,46,26,11,0.00,40.00,7,4,15,0.00
2013-4-20,59,46,33,20,14,4,39,28,19,0.00,40.00,8,5,18,0.00
2013-4-21,66,50,30,19,16,10,62,30,14,0.00,40.00,10,6,24,0.00
2013-4-22,72,57,43,15,12,9,26,18,10,0.00,40.00,14,9,34,0.00
2013-4-23,53,44,36,19,4,-10,39,21,7,0.00,40.00,9,6,20,0.00
2013-4-24,61,46,28,-5,-8,-10,21,11,6,0.00,40.00,8,6,16,0.00
2013-4-25,65,51,36,16,6,-8,28,17,7,0.00,40.00,10,6,21,0.00
2013-4-26,67,52,38,17,6,-3,42,19,6,0.00,40.00,8,4,19,0.00
2013-4-27,72,53,37,8,4,-10,24,15,5,0.00,40.00,8,4,17,0.00
2013-4-28,75,57,39,14,5,-1,27,14,6,0.00,40.00,7,3,17,0.00
2013-4-29,78,62,43,20,12,5,34,15,7,0.00,40.00,11,6,27,0.00
2013-4-30,75,64,51,16,9,1,21,12,6,0.00,40.00,19,11,37,0.00
2013-5-1,63,52,40,16,1,-14,28,13,6,0.00,40.00,12,7,23,0.00
2013-5-2,55,42,31,9,3,-3,38,21,11,0.00,40.00,9,6,19,0.00
2013-5-3,68,50,29,3,-2,-5,26,13,5,0.00,40.00,7,4,14,0.00
2013-5-4,72,55,38,6,0,-8,19,11,4,0.00,40.00,9,5,20,0.00
2013-5-5,64,55,48,23,12,2,36,19,11,0.00,40.00,10,7,23,0.00
2013-5-6,61,50,43,38,26,18,81,42,23,0.00,40.00,11,7,24,0.01
2013-5-7,61,49,42,34,31,22,66,52,22,0.00,40.00,11,7,26,0.03
2013-5-8,57,43,33,36,31,24,97,68,30,0.00,40.00,8,5,17,0.08
2013-5-9,55,43,32,41,34,26,92,72,43,0.00,40.00,7,3,13,0.04
2013-5-10,66,50,35,39,30,-100,96,58,22,0.00,40.00,8,5,21,0.01
2013-5-11,69,53,38,32,24,-100,71,39,15,0.00,40.00,9,5,18,0.00
2013-5-12,76,58,42,28,21,14,44,26,12,0.00,40.00,6,3,14,0.00
2013-5-13,80,63,47,24,20,16,34,21,11,0.00,40.00,7,4,17,0.00
2013-5-14,82,67,52,27,20,16,32,18,9,0.00,40.00,8,4,19,0.00
2013-5-15,77,64,46,25,17,-4,38,19,4,0.00,40.00,17,8,33,0.00
2013-5-16,77,62,51,20,1,-100,27,14,8,0.00,40.00,12,8,25,0.00
2013-5-17,67,59,50,21,15,-100,25,19,13,0.00,40.00,14,9,30,0.00
2013-5-18,66,54,44,31,24,20,45,32,20,0.00,40.00,11,6,28,0.00
2013-5-19,61,50,40,41,30,24,76,47,25,0.00,40.00,9,5,27,0.05
2013-5-20,65,49,33,31,25,18,84,45,17,0.00,40.00,9,4,22,0.04
2013-5-21,73,57,42,29,21,12,51,27,11,0.00,40.00,8,5,17,0.00
2013-5-22,76,62,45,22,14,9,27,16,9,0.00,40.00,17,9,33,0.00
2013-5-23,77,64,50,22,13,4,26,16,6,0.00,40.00,16,10,34,0.00
2013-5-24,75,62,48,20,10,2,24,14,6,0.00,40.00,12,8,25,0.00
2013-5-25,78,63,43,18,8,-3,27,14,4,0.00,40.00,13,8,25,0.00
2013-5-26,75,62,51,15,9,-2,21,13,5,0.00,40.00,11,8,23,0.00
2013-5-27,74,61,47,14,10,5,24,14,7,0.00,40.00,9,6,17,0.00
2013-5-28,71,59,47,37,22,13,57,25,15,0.00,40.00,16,8,33,0.00
2013-5-29,70,54,35,36,25,13,84,40,12,0.00,40.00,14,6,26,0.00
2013-5-30,76,61,41,26,19,4,46,23,6,0.00,40.00,13,6,28,0.00
2013-5-31,77,63,46,22,15,8,32,16,8,0.00,40.00,10,6,19,0.00
2013-6-1,79,63,49,8,6,3,17,11,6,0.00,40.00,10,6,19,0.00
2013-6-2,83,68,50,15,10,6,18,11,6,0.00,40.00,10,6,27,0.00
2013-6-3,84,69,55,29,21,12,29,17,8,0.00,40.00,11,6,25,0.00
2013-6-4,83,69,50,23,17,8,32,15,6,0.00,40.00,11,6,21,0.00
2013-6-5,85,70,56,24,20,13,27,16,7,0.00,40.00,9,4,19,0.00
2013-6-6,85,72,60,23,16,10,22,13,6,0.00,40.00,9,5,19,0.00
2013-6-7,86,72,54,25,20,15,29,15,7,0.00,40.00,9,5,19,0.00
2013-6-8,90,76,54,25,21,15,27,14,8,0.00,40.00,10,5,24,0.00
2013-6-9,93,78,63,22,16,6,18,11,4,0.00,40.00,8,4,16,0.00
2013-6-10,90,76,63,19,10,-7,16,9,3,0.00,40.00,14,8,33,0.00
2013-6-11,87,72,59,26,13,-7,20,11,5,0.00,40.00,14,8,24,0.00
2013-6-12,88,72,53,21,17,13,23,13,7,0.00,40.00,13,5,25,0.00
2013-6-13,85,73,60,29,23,16,24,16,10,0.00,40.00,18,8,36,0.00
2013-6-14,84,71,51,18,12,4,24,12,5,0.00,40.00,13,7,26,0.00
2013-6-15,80,67,54,38,26,13,39,22,14,0.00,40.00,19,6,37,0.00
2013-6-16,85,70,57,40,29,13,53,26,8,0.00,40.00,13,7,27,0.00
2013-6-17,84,70,51,17,12,0,24,12,4,0.00,40.00,11,5,20,0.00
2013-6-18,84,70,50,7,2,-10,14,7,4,0.00,40.00,12,8,27,0.00
2013-6-19,84,70,55,9,4,-6,14,8,3,0.00,40.00,17,11,36,0.00
2013-6-20,83,65,55,15,11,5,19,13,5,0.00,40.00,13,7,26,0.00
2013-6-22,82,75,66,20,14,8,14,10,6,0.00,40.00,11,9,37,0.00
2013-6-23,82,70,52,18,13,4,23,12,5,0.00,40.00,12,7,24,0.00
2013-6-24,78,68,56,24,15,7,20,14,9,0.00,40.00,15,10,28,0.00
2013-6-25,82,68,57,24,20,14,22,17,11,0.00,40.00,11,8,21,0.00
2013-6-26,89,73,53,35,24,19,41,19,9,0.00,40.00,9,5,18,0.00
2013-6-27,94,77,59,36,27,20,37,18,7,0.00,40.00,7,4,16,0.00
2013-6-28,98,84,69,27,24,19,20,12,6,0.00,40.00,11,4,24,0.00
2013-6-29,93,80,69,38,32,28,25,18,10,0.00,40.00,12,6,27,0.06
2013-6-30,96,80,65,40,34,25,37,21,8,0.00,40.00,8,5,27,0.03
2013-7-1,93,79,67,41,33,24,37,21,9,0.00,40.00,8,5,18,0.02
2013-7-2,93,78,65,43,33,26,33,21,11,0.00,40.00,8,4,15,0.00
2013-7-3,93,78,58,41,32,19,48,22,7,0.00,40.00,8,4,19,0.00
2013-7-4,92,80,67,37,32,29,26,19,12,0.00,40.00,9,5,19,0.00
2013-7-5,86,74,63,46,42,36,44,32,22,0.00,40.00,11,6,21,0.00
2013-7-6,84,67,56,55,45,39,95,50,25,0.00,40.00,7,4,15,1.16
2013-7-7,85,70,55,53,47,37,83,48,20,0.00,40.00,9,5,22,0.05
2013-7-8,90,73,63,48,42,-100,57,38,13,0.00,40.00,7,5,20,0.00
2013-7-9,92,77,64,48,38,24,54,28,9,0.00,40.00,7,4,18,0.00
2013-7-10,91,78,60,44,28,-100,36,18,8,0.00,40.00,10,4,20,0.00
2013-7-11,82,72,64,54,48,45,67,45,27,0.00,40.00,11,7,20,0.00
2013-7-12,84,68,56,55,51,41,86,61,23,0.00,40.00,14,6,26,0.02
2013-7-13,84,70,60,53,48,42,75,48,24,0.00,40.00,7,4,15,0.02
2013-7-14,88,74,60,50,45,38,61,39,17,0.00,40.00,8,3,16,0.00
2013-7-15,86,71,57,53,49,46,81,50,27,0.00,40.00,10,4,16,0.09
2013-7-16,75,69,63,59,56,54,78,64,52,0.00,40.00,7,4,13,0.46
2013-7-17,79,67,59,59,56,54,88,70,46,0.00,40.00,6,2,13,0.08
2013-7-18,84,70,59,56,53,47,89,59,28,0.00,40.00,11,4,26,0.44
2013-7-19,83,66,57,60,52,49,87,62,33,0.00,40.00,8,4,14,0.34
2013-7-20,83,70,56,59,54,47,90,59,34,0.00,40.00,7,4,15,0.07
2013-7-21,83,69,59,59,50,47,74,54,32,0.00,40.00,7,3,15,0.20
2013-7-22,80,68,55,56,52,47,92,59,35,0.00,40.00,9,5,24,0.01
2013-7-23,80,68,61,55,50,46,70,53,33,0.00,40.00,9,5,24,0.07
2013-7-24,85,72,57,53,49,45,85,47,25,0.00,40.00,6,3,12,0.04
2013-7-25,89,72,60,56,51,38,87,52,17,0.00,40.00,6,4,16,0.12
2013-7-26,90,71,59,53,48,36,79,49,15,0.00,40.00,10,5,25,0.00
2013-7-27,83,66,59,54,51,47,82,59,33,0.00,40.00,8,5,19,0.00
2013-7-28,73,62,57,60,56,50,95,80,60,0.00,40.00,8,5,17,0.54
2013-7-29,79,66,51,53,49,45,92,60,30,0.00,40.00,11,4,20,0.03
2013-7-30,84,70,53,49,42,35,77,41,18,0.00,40.00,8,3,16,0.00
2013-7-31,89,74,58,46,41,37,51,34,18,0.00,40.00,8,2,17,0.00
2013-8-1,79,68,60,56,50,45,82,54,35,0.00,40.00,11,5,21,0.13
2013-8-2,80,68,58,56,52,48,85,60,35,0.00,40.00,11,6,21,0.09
2013-8-3,84,70,55,51,47,42,81,48,24,0.00,40.00,9,6,21,0.00
2013-8-4,83,70,60,48,44,36,59,41,19,0.00,40.00,7,4,21,0.00
2013-8-5,84,71,57,48,42,36,61,38,18,0.00,40.00,8,4,17,0.00
2013-8-6,71,66,60,51,46,38,65,49,31,0.00,40.00,10,6,20,0.00
2013-8-7,70,58,52,54,50,45,97,78,42,0.00,40.00,8,4,14,0.17
2013-8-8,81,64,48,46,40,28,83,49,17,0.00,40.00,7,3,19,0.01
2013-8-9,81,70,58,35,29,21,41,24,11,0.00,40.00,10,6,22,0.00
2013-8-10,79,66,57,48,37,24,64,36,23,0.00,40.00,10,5,31,0.04
2013-8-11,79,63,54,53,46,41,95,57,27,0.00,40.00,8,6,23,0.20
2013-8-12,80,65,49,53,45,30,90,53,16,0.00,40.00,7,4,14,0.20
2013-8-13,85,70,55,45,35,24,62,33,11,0.00,40.00,9,5,24,0.00
2013-8-14,85,70,54,36,32,27,44,27,13,0.00,40.00,8,3,18,0.00
2013-8-15,87,64,57,44,23,-100,51,30,13,0.00,40.00,11,5,21,0.00
2013-8-16,90,70,55,46,39,-100,65,38,11,0.00,40.00,7,4,21,0.00
2013-8-17,85,67,56,56,44,-100,95,51,23,0.00,40.00,10,4,20,0.15
2013-8-18,86,68,54,53,49,44,91,55,24,0.00,40.00,7,3,15,0.13
2013-8-19,86,68,57,48,37,-100,64,40,21,0.00,40.00,7,3,17,0.00
2013-8-20,88,71,61,49,42,-100,58,39,21,0.00,40.00,7,3,18,0.00
2013-8-21,80,66,58,56,46,38,93,53,24,0.00,40.00,9,4,20,0.15
2013-8-22,79,67,56,55,52,48,95,62,34,0.00,40.00,6,3,11,0.15
2013-8-23,81,68,57,54,48,38,76,52,26,0.00,40.00,14,6,24,0.00
2013-8-24,76,64,59,56,46,-100,84,56,37,0.00,40.00,9,5,18,0.01
2013-8-25,62,59,57,58,56,52,98,90,79,0.00,40.00,7,4,11,0.25
2013-8-26,71,60,55,64,57,52,99,92,78,0.00,40.00,7,5,25,0.57
2013-8-27,70,60,56,60,57,55,100,90,70,0.00,40.00,7,5,15,0.54
2013-8-28,82,70,58,56,54,51,85,60,35,0.00,40.00,9,4,16,0.01
2013-8-29,79,67,54,54,50,46,85,58,31,0.00,40.00,5,4,10,0.01
2013-8-30,80,67,56,60,56,50,96,70,45,0.00,40.00,7,4,13,0.00
2013-8-31,77,63,56,60,55,-100,99,81,51,0.00,40.00,6,2,17,0.20
2013-9-1,79,65,55,61,56,51,100,77,43,0.00,40.00,8,4,15,0.01
2013-9-2,83,69,57,57,52,40,91,59,22,0.00,40.00,8,3,22,0.00
2013-9-3,84,70,60,53,49,45,78,49,26,0.00,40.00,8,4,15,0.00
2013-9-4,86,69,59,61,51,47,94,57,28,0.00,40.00,9,3,17,0.25
2013-9-5,82,68,55,55,51,47,86,57,33,0.00,40.00,9,3,17,0.04
2013-9-6,84,68,55,49,46,37,77,50,19,0.00,40.00,9,3,19,0.00
2013-9-7,84,64,57,60,48,-100,95,60,27,0.00,40.00,10,4,26,0.32
2013-9-8,63,59,55,57,54,52,95,86,71,0.00,40.00,7,3,16,0.21
2013-9-9,62,57,54,56,55,53,99,92,78,0.00,40.00,8,4,12,0.25
2013-9-10,70,59,53,55,53,48,99,82,49,0.00,40.00,7,5,18,0.19
2013-9-11,68,57,51,54,52,50,98,84,56,0.00,40.00,8,5,16,0.10
2013-9-12,74,60,48,55,49,44,99,73,34,0.00,40.00,7,4,16,0.01
2013-9-13,76,62,49,51,46,39,96,62,30,0.00,40.00,7,4,16,0.01
2013-9-14,74,58,53,54,48,-100,88,73,43,0.00,40.00,7,3,14,0.19
2013-9-15,70,59,52,54,51,48,95,76,50,0.00,40.00,6,4,11,0.06
2013-9-16,77,63,51,52,50,47,93,65,41,0.00,40.00,6,4,12,0.00
2013-9-17,79,66,56,52,49,45,77,56,31,0.00,40.00,12,7,22,0.00
2013-9-18,63,59,55,50,44,28,82,60,33,0.00,40.00,8,5,15,0.00
2013-9-19,77,63,50,34,29,25,48,30,17,0.00,40.00,7,4,18,0.00
2013-9-20,79,65,55,34,28,21,35,25,17,0.00,40.00,10,6,24,0.00
2013-9-21,74,64,54,43,36,-100,51,37,26,0.00,40.00,13,7,27,0.00
2013-9-22,68,58,47,48,36,13,74,48,14,0.00,40.00,22,12,45,0.00
2013-9-23,70,53,36,34,26,12,80,41,12,0.00,40.00,7,4,13,0.00
2013-9-24,74,57,41,27,23,17,46,29,12,0.00,40.00,8,5,17,0.00
2013-9-25,72,60,49,30,26,20,44,28,14,0.00,40.00,21,13,37,0.00
2013-9-26,69,56,48,36,29,21,60,38,16,0.00,40.00,18,13,39,0.00
2013-9-27,55,44,35,34,23,13,80,47,19,0.00,40.00,15,6,28,0.03
2013-9-28,65,46,33,21,14,-100,58,33,11,0.00,40.00,6,4,13,0.01
2013-9-29,71,53,39,21,16,12,39,25,12,0.00,40.00,9,4,19,0.00
2013-9-30,74,56,40,22,19,15,39,25,12,0.00,40.00,7,4,16,0.00
2013-10-1,70,62,57,18,16,13,21,17,11,0.00,40.00,9,6,17,0.00
2013-10-2,70,58,47,28,22,18,38,26,14,0.00,40.00,12,8,21,0.00
2013-10-3,67,55,41,37,27,19,52,35,20,0.00,40.00,19,12,39,0.00
2013-10-4,50,40,30,23,14,8,55,36,19,0.00,40.00,8,6,18,0.00
2013-10-5,56,40,29,22,16,3,68,40,20,0.00,40.00,7,4,17,0.00
2013-10-6,67,50,36,22,16,3,41,27,17,0.00,40.00,6,4,13,0.00
2013-10-7,71,55,39,25,18,10,47,26,11,0.00,40.00,8,5,16,0.00
2013-10-8,67,57,47,25,18,15,28,23,14,0.00,40.00,15,9,28,0.00
2013-10-9,61,52,44,26,20,11,46,30,15,0.00,40.00,14,9,32,0.00
2013-10-10,50,39,33,36,33,29,98,81,44,0.00,40.00,15,9,31,0.44
2013-10-11,54,40,31,38,33,30,99,79,49,0.00,40.00,8,4,14,0.01
2013-10-12,61,44,31,32,26,-100,93,58,20,0.00,40.00,7,4,18,0.01
2013-10-13,60,50,41,32,28,24,60,43,28,0.00,40.00,13,8,25,0.00
2013-10-14,56,42,33,31,26,20,84,56,27,0.00,40.00,7,4,18,0.00
2013-10-15,51,40,31,28,25,22,69,55,36,0.00,40.00,8,5,16,0.00
2013-10-16,54,39,27,24,18,12,75,47,20,0.00,40.00,6,3,12,0.00
2013-10-17,59,41,27,19,13,8,56,35,14,0.00,40.00,7,3,15,0.00
2013-10-18,55,43,34,17,15,11,46,32,20,0.00,40.00,8,4,18,0.00
2013-10-19,62,43,29,18,11,-100,54,31,13,0.00,40.00,6,2,15,0.00
2013-10-20,64,47,31,15,11,8,45,26,11,0.00,40.00,7,3,13,0.00
2013-10-21,61,48,35,22,18,10,49,31,20,0.00,40.00,7,4,13,0.00
2013-10-22,66,48,33,21,18,15,50,33,17,0.00,40.00,5,4,10,0.00
2013-10-23,68,51,39,22,17,15,38,28,14,0.00,40.00,6,5,14,0.00
2013-10-24,63,52,45,33,23,13,55,33,23,0.00,40.00,9,6,19,0.00
2013-10-25,60,47,38,40,34,29,81,61,37,0.00,40.00,6,4,12,0.04
2013-10-26,44,43,42,30,29,29,60,58,56,0.00,40.00,4,3,6,0.04